sat.trackr.live / text

‹ back to catalog

STARLINK-33554

NORAD 62103 · 2024-220R

PAYLOAD ACTIVE UNKNOWN

§ Identity

Operator
Country
US
Launch date
2024-11-25
Launch site
AFETR
Launch vehicle
Mass (kg)
RCS (m²)

Purposes: comms

External: N2YO · Heavens-Above · Gunter

§ Orbital elements

Epoch: 2026-09-21T04:30:59.174496Z

Period
94.27 min
Inclination
42.9990°
Eccentricity
0.0000702
Mean motion
15.27599493 rev/d
Perigee alt
482.5 km
Apogee alt
483.5 km
Semi-major
6,861.1 km
B*
4.3302e-4
RAAN
181.1704°
Arg perigee
6.4880°
Mean anomaly
353.5980°
Rev number
10,285

§ Raw data

STARLINK-335541 62103U 24220R   26264.18818489  .00011680  00000+0  43302-3 0  99992 62103  42.9990 181.1704 0000702   6.4880 353.5980 15.27599493102857

JSON: /api/v1/satellites/62103 · /tle

For live sub-satellite position, see the globe view (requires WebGL).

§ Visibility from observer

Set your observer location to see the next 7 days of passes ≥ 10°. The values pass through the URL so the page stays shareable.

No JS? Fill the form by hand. The geolocation button needs JavaScript.